New York JFK, NY

7:17 PM EDT on July 21, 2017 (GMT -0400)
Kennedy International

Weather History for KJFK - December, 2012

Change the Weather History Date:

Thursday, December 6, 2012

  Actual Average Record
Temperature  
Mean Temperature 36 °F 41 °F  
Max Temperature 41 °F 47 °F 70 °F (2001)
Min Temperature 30 °F 34 °F 21 °F (1976)
Degree Days  
Heating Degree Days 29 24  
Month to date heating degree days 116 141  
Since 1 July heating degree days 955 965  
Cooling Degree Days 0 0  
Month to date cooling degree days 0 0  
Year to date cooling degree days 1229 1005  
Moisture  
Dew Point 17 °F    
Average Humidity 48    
Maximum Humidity 63    
Minimum Humidity 32    
Precipitation  
Precipitation 0.00 in 0.11 in 1.24 in (2014)
Month to date precipitation 0.06 0.71  
Year to date precipitation 34.97 40.09  
Snow  
Snow 0.00 in 0.10 in 5.90 in (2003)
Month to date snowfall 0.0 0.5  
Since 1 July snowfall 4.3 0.7  
Snow Depth 0.00 in    
Sea Level Pressure  
Sea Level Pressure 30.32 in    
Wind  
Wind Speed 7 mph (North)    
Max Wind Speed 21 mph    
Max Gust Speed 25 mph    
Visibility 10 miles    
Events      
T = Trace of Precipitation, MM = Missing Value Source: NWS Daily Summary

Daily Weather History Graph

Daily Weather History Graph

Search for Another Location

Airport or City:

Trip Planner

Search our weather history database for the weather conditions in past years. The results will help you decide how hot, cold, wet, or windy it might be!

Date:

Astronomy

Dec. 06, 2012 Rise Set
Actual Time 7:04 AM EST 4:27 PM EST
Civil Twilight 6:34 AM EST 4:58 PM EST
Nautical Twilight 6:00 AM EST 5:32 PM EST
Astronomical Twilight 5:26 AM EST 6:05 PM EST
Moon No Moon Rise 11:54 AM EST (12/6)
Length of Visible Light 10h 24m
Length of Day
9h 22m
Waning Gibbous, 49% of the Moon is Illuminated
Dec 6
Waning Gibbous
Dec 13
New
Dec 20
First Quarter
Dec 28
Full
Jan 4
Last Quarter

Hourly Weather History & Observations

Time (EST) Temp. Windchill Dew Point Humidity Pressure Visibility Wind Dir Wind Speed Gust Speed Precip Events Conditions
12:51 AM 35.1 °F 25.5 °F 19.0 °F 52% 30.24 in 10.0 mi NNW 15.0 mph - N/A   Partly Cloudy
1:51 AM 34.0 °F 24.6 °F 19.0 °F 54% 30.26 in 10.0 mi NNW 13.8 mph - N/A   Partly Cloudy
2:51 AM 34.0 °F 24.2 °F 18.0 °F 52% 30.28 in 10.0 mi NNW 15.0 mph - N/A   Partly Cloudy
3:51 AM 33.1 °F 26.1 °F 18.0 °F 54% 30.28 in 10.0 mi North 8.1 mph - N/A   Partly Cloudy
4:51 AM 32.0 °F 22.5 °F 17.1 °F 54% 30.30 in 10.0 mi NNW 12.7 mph - N/A   Partly Cloudy
5:51 AM 30.9 °F 22.8 °F 15.1 °F 52% 30.32 in 10.0 mi NNW 9.2 mph - N/A   Clear
6:51 AM 30.0 °F 21.1 °F 15.1 °F 54% 30.35 in 10.0 mi NNW 10.4 mph - N/A   Scattered Clouds
7:51 AM 30.9 °F 22.8 °F 15.1 °F 52% 30.37 in 10.0 mi NNW 9.2 mph - N/A   Scattered Clouds
8:51 AM 32.0 °F 21.2 °F 14.0 °F 48% 30.38 in 10.0 mi North 16.1 mph - N/A   Scattered Clouds
9:51 AM 35.1 °F 26.4 °F 14.0 °F 42% 30.38 in 10.0 mi NNE 12.7 mph - N/A   Scattered Clouds
10:51 AM 36.0 °F 28.5 °F 15.1 °F 43% 30.37 in 10.0 mi NNW 10.4 mph - N/A   Scattered Clouds
11:51 AM 37.9 °F 34.4 °F 15.1 °F 39% 30.35 in 10.0 mi Variable 4.6 mph - N/A   Mostly Cloudy
12:51 PM 39.9 °F 37.8 °F 12.9 °F 33% 30.32 in 10.0 mi NNW 3.5 mph - N/A   Mostly Cloudy
1:51 PM 41.0 °F 36.4 °F 14.0 °F 33% 30.30 in 10.0 mi North 6.9 mph - N/A   Mostly Cloudy
2:51 PM 39.9 °F 37.8 °F 14.0 °F 35% 30.30 in 10.0 mi NW 3.5 mph - N/A   Mostly Cloudy
3:51 PM 37.9 °F 34.4 °F 15.1 °F 39% 30.30 in 10.0 mi NE 4.6 mph - N/A   Mostly Cloudy
4:51 PM 36.0 °F 32.1 °F 16.0 °F 44% 30.31 in 10.0 mi ENE 4.6 mph - N/A   Mostly Cloudy
5:51 PM 37.0 °F 34.5 °F 16.0 °F 42% 30.31 in 10.0 mi East 3.5 mph - N/A   Mostly Cloudy
6:51 PM 35.1 °F 32.2 °F 18.0 °F 50% 30.32 in 10.0 mi East 3.5 mph - N/A   Mostly Cloudy
7:51 PM 34.0 °F 29.8 °F 18.0 °F 52% 30.32 in 10.0 mi ESE 4.6 mph - N/A   Mostly Cloudy
8:51 PM 33.1 °F 30.0 °F 19.9 °F 59% 30.32 in 10.0 mi ESE 3.5 mph - N/A   Mostly Cloudy
9:51 PM 36.0 °F - 21.0 °F 55% 30.32 in 10.0 mi Calm Calm - N/A   Mostly Cloudy
10:51 PM 32.0 °F - 21.0 °F 64% 30.31 in 10.0 mi Calm Calm - N/A   Mostly Cloudy
11:51 PM 30.9 °F - 21.0 °F 67% 30.30 in 10.0 mi Calm Calm - N/A   Mostly Cloudy